Вернуться в каталог

COSMOS 1055

АктивенВоенныеLEO
NORAD 11132·PAYLOAD·🇷🇺 Russia

Запущен Dec 5, 1978 с Plesetsk Cosmodrome

Loading…

Ближайшие Пролёты (ближайшие 24 часа)

TLE

СвежийSource: Space-Track

Эпоха: Sep 14, 2026, 15:46 UTC

1 11132U 78109E   26257.65712444  .00000002  00000-0  11884-3 0  9995
2 11132  74.0196 325.5499 0016825  18.6247 135.1862 12.46953691174716

Отслеживайте COSMOS 1055 в реальном времени с AllMySat

Download on the App Store